QPF
0.12 0.23 0.30 0.02 0.00 0.00 0.00 0.00 0.00 0.00 0.00 0.00 0.00 0.00 0.00 0.00 0.00 0.00 0.00 0.00 0.00 0.00 0.00 0.00 0.02 0.10 0.22 0.19 0.12 0.14 0.10 0.10 0.02 0.04 0.05 0.04 0.06 0.01 0.01 0.01 0.00 0.00 0.00
0.18 0.37 0.08 0.01 0.00 0.00 0.00 0.00 0.00 0.00 0.00 0.00 0.00 0.00 0.00 0.00 0.00 0.00 0.00 0.00 0.00 0.00 0.00 0.01 0.01 0.05 0.09 0.14 0.13 0.09 0.12 0.06 0.02 0.03 0.04 0.12 0.13 0.09 0.11 0.12 0.05 0.02 0.00
0.08 0.04 0.03 0.00 0.00 0.00 0.00 0.00 0.00 0.00 0.00 0.00 0.00 0.00 0.00 0.00 0.00 0.00 0.00 0.00 0.00 0.00 0.00 0.00 0.00 0.00 0.01 0.01 0.02 0.00 0.01 0.01 0.02 0.09 0.13 0.11 0.10 0.12 0.05 0.05 0.03 0.02 0.00
0.00 0.00 0.00 0.00 0.00 0.00 0.00 0.00 0.00 0.00 0.00 0.00 0.00 0.00 0.00 0.00 0.00 0.00 0.00 0.00 0.00 0.00 0.00 0.00 0.00 0.00 0.00 0.01 0.01 0.01 0.01 0.01 0.01 0.00 0.00 0.00 0.01 0.01 0.01 0.00 0.00 0.00 0.00
0.01 0.01 0.01 0.00 0.00 0.00 0.00 0.00 0.00 0.00 0.00 0.00 0.00 0.00 0.00 0.00 0.00 0.00 0.00 0.00 0.00 0.00 0.00 0.00 0.00 0.00 0.00 0.00 0.00 0.01 0.01 0.00 0.00 0.00 0.00 0.00 0.02 0.01 0.00 0.00 0.00 0.00 0.00
0.01 0.07 0.05 0.00 0.00 0.00 0.00 0.00 0.00 0.00 0.00 0.00 0.00 0.00 0.00 0.00 0.00 0.00 0.00 0.00 0.00 0.00 0.00 0.00 0.00 0.00 0.00 0.00 0.00 0.00 0.00 0.00 0.00 0.00 0.00 0.00 0.00 0.00 0.00 0.00 0.00 0.00 0.00
0.00 0.02 0.01 0.01 0.00 0.00 0.00 0.00 0.00 0.00 0.00 0.00 0.00 0.00 0.00 0.00 0.00 0.00 0.00 0.00 0.00 0.00 0.00 0.00 0.00 0.00 0.00 0.00 0.00 0.00 0.00 0.00 0.00 0.01 0.01 0.01 0.01 0.01 0.00 0.00 0.00 0.00 0.00
0.00 0.01 0.02 0.04 0.00 0.00 0.00 0.00 0.00 0.00 0.00 0.00 0.00 0.00 0.00 0.00 0.00 0.00 0.00 0.00 0.00 0.00 0.00 0.00 0.00 0.00 0.00 0.00 0.00 0.00 0.00 0.00 0.00 0.00 0.00 0.00 0.00 0.01 0.01 0.00 0.00 0.00 0.00
0.03 0.00 0.01 0.01 0.00 0.00 0.00 0.00 0.01 0.01 0.00 0.00 0.00 0.00 0.00 0.00 0.00 0.00 0.00 0.00 0.00 0.00 0.00 0.00 0.00 0.00 0.00 0.00 0.00 0.00 0.00 0.00 0.00 0.00 0.00 0.00 0.00 0.00 0.00 0.00 0.01 0.01 0.01
0.01 0.00 0.00 0.00 0.00 0.00 0.00 0.00 0.00 0.03 0.01 0.00 0.00 0.00 0.00 0.00 0.00 0.00 0.00 0.00 0.00 0.00 0.00 0.00 0.00 0.00 0.00 0.00 0.00 0.00 0.00 0.00 0.00 0.00 0.00 0.00 0.00 0.00 0.00 0.00 0.00 0.00 0.00
0.00 0.00 0.01 0.00 0.00 0.00 0.00 0.01 0.05 0.03 0.01 0.00 0.00 0.00 0.00 0.00 0.00 0.00 0.00 0.00 0.00 0.00 0.00 0.00 0.00 0.00 0.00 0.00 0.00 0.00 0.00 0.00 0.00 0.00 0.00 0.00 0.00 0.00 0.00 0.00 0.00 0.00 0.00
0.00 0.00 0.02 0.00 0.00 0.00 0.00 0.00 0.04 0.04 0.00 0.00 0.00 0.00 0.00 0.00 0.00 0.00 0.00 0.00 0.00 0.00 0.00 0.00 0.00 0.00 0.00 0.00 0.00 0.00 0.00 0.00 0.00 0.00 0.00 0.00 0.00 0.00 0.00 0.00 0.00 0.00 0.00
0.00 0.00 0.00 0.00 0.00 0.00 0.00 0.01 0.04 0.02 0.00 0.00 0.00 0.00 0.00 0.00 0.00 0.00 0.00 0.00 0.00 0.00 0.00 0.00 0.00 0.00 0.00 0.00 0.00 0.00 0.00 0.00 0.00 0.00 0.00 0.00 0.00 0.00 0.00 0.00 0.00 0.00 0.00
0.00 0.01 0.02 0.02 0.02 0.00 0.01 0.01 0.00 0.01 0.00 0.00 0.00 0.00 0.00 0.00 0.00 0.00 0.00 0.00 0.00 0.00 0.00 0.00 0.00 0.00 0.00 0.00 0.00 0.00 0.00 0.00 0.00 0.00 0.00 0.00 0.00 0.00 0.00 0.00 0.00 0.00 0.00
0.00 0.00 0.00 0.02 0.02 0.00 0.01 0.03 0.02 0.02 0.06 0.04 0.00 0.00 0.00 0.00 0.00 0.00 0.00 0.00 0.00 0.00 0.00 0.00 0.00 0.00 0.00 0.00 0.00 0.00 0.00 0.00 0.00 0.00 0.00 0.00 0.00 0.00 0.00 0.00 0.00 0.00 0.00
0.00 0.00 0.00 0.00 0.00 0.00 0.00 0.01 0.06 0.10 0.09 0.04 0.02 0.00 0.00 0.00 0.00 0.00 0.00 0.00 0.00 0.00 0.00 0.00 0.00 0.00 0.00 0.00 0.00 0.00 0.00 0.00 0.00 0.00 0.00 0.00 0.00 0.00 0.00 0.00 0.00 0.00 0.00
0.00 0.00 0.00 0.00 0.00 0.00 0.00 0.00 0.01 0.02 0.03 0.01 0.00 0.00 0.00 0.00 0.00 0.00 0.00 0.00 0.00 0.00 0.00 0.00 0.00 0.00 0.00 0.00 0.00 0.00 0.00 0.00 0.00 0.00 0.00 0.00 0.00 0.00 0.00 0.00 0.00 0.00 0.00
0.00 0.00 0.00 0.00 0.00 0.00 0.00 0.00 0.00 0.00 0.00 0.00 0.00 0.00 0.00 0.00 0.00 0.00 0.00 0.00 0.00 0.00 0.00 0.00 0.00 0.00 0.00 0.00 0.00 0.00 0.00 0.00 0.00 0.00 0.00 0.00 0.00 0.00 0.00 0.00 0.00 0.00 0.00
0.00 0.00 0.00 0.00 0.00 0.00 0.00 0.00 0.00 0.00 0.00 0.00 0.00 0.00 0.00 0.00 0.00 0.00 0.00 0.00 0.00 0.00 0.00 0.00 0.00 0.00 0.00 0.00 0.00 0.00 0.00 0.00 0.00 0.00 0.00 0.00 0.00 0.00 0.00 0.00 0.00 0.00 0.00
0.00 0.00 0.00 0.00 0.00 0.00 0.00 0.00 0.00 0.00 0.00 0.00 0.00 0.00 0.00 0.00 0.00 0.00 0.00 0.00 0.00 0.00 0.00 0.00 0.00 0.00 0.00 0.00 0.00 0.00 0.00 0.00 0.00 0.00 0.00 0.00 0.00 0.00 0.00 0.00 0.00 0.00 0.00
0.00 0.00 0.00 0.00 0.00 0.00 0.00 0.00 0.00 0.00 0.00 0.00 0.00 0.00 0.00 0.00 0.00 0.00 0.00 0.00 0.00 0.00 0.00 0.00 0.00 0.00 0.00 0.00 0.00 0.00 0.00 0.00 0.00 0.00 0.00 0.00 0.00 0.00 0.00 0.00 0.00 0.00 0.00
0.00 0.00 0.00 0.00 0.00 0.00 0.00 0.00 0.00 0.00 0.00 0.00 0.00 0.00 0.00 0.00 0.00 0.00 0.00 0.00 0.00 0.00 0.00 0.00 0.00 0.00 0.00 0.00 0.00 0.00 0.00 0.00 0.00 0.00 0.00 0.00 0.00 0.00 0.00 0.00 0.00 0.00 0.00
0.00 0.00 0.00 0.00 0.00 0.00 0.00 0.00 0.00 0.00 0.00 0.00 0.00 0.00 0.00 0.00 0.00 0.00 0.00 0.00 0.00 0.00 0.00 0.00 0.00 0.00 0.00 0.00 0.00 0.00 0.00 0.00 0.00 0.00 0.00 0.00 0.00 0.00 0.00 0.00 0.00 0.00 0.00
0.00 0.00 0.00 0.00 0.00 0.00 0.00 0.00 0.00 0.00 0.00 0.00 0.00 0.00 0.00 0.00 0.00 0.00 0.00 0.00 0.00 0.00 0.00 0.00 0.00 0.00 0.00 0.00 0.00 0.00 0.00 0.00 0.00 0.00 0.00 0.00 0.00 0.00 0.00 0.00 0.00 0.00 0.00
0.00 0.00 0.00 0.00 0.00 0.00 0.00 0.00 0.00 0.00 0.00 0.00 0.00 0.00 0.00 0.00 0.00 0.00 0.00 0.00 0.00 0.00 0.00 0.00 0.00 0.00 0.00 0.00 0.00 0.00 0.00 0.00 0.00 0.00 0.00 0.00 0.00 0.00 0.00 0.00 0.00 0.00 0.00
0.00 0.00 0.00 0.00 0.00 0.00 0.00 0.00 0.00 0.00 0.00 0.00 0.00 0.00 0.00 0.00 0.00 0.00 0.00 0.00 0.00 0.00 0.00 0.00 0.00 0.00 0.00 0.00 0.00 0.00 0.00 0.00 0.00 0.00 0.00 0.00 0.00 0.00 0.00 0.00 0.00 0.00 0.00
MSLP
1015.09 1015.73 1016.02 1016.55 1016.20 1016.34 1016.71 1016.86 1016.97 1016.86 1016.68 1016.40 1016.38 1016.26 1016.17 1016.06 1016.26 1016.49 1016.53 1016.43 1016.20 1015.96 1015.64 1015.31 1014.70 1014.73 1014.72 1014.93 1015.04 1015.26 1015.31 1015.92 1017.10 1018.92 1019.41 1020.27 1020.52 1020.52 1020.82 1020.92 1021.05 1021.20 1021.33
1015.61 1015.73 1016.25 1016.14 1016.00 1016.46 1016.90 1017.16 1017.26 1017.33 1016.94 1016.52 1016.62 1016.61 1016.56 1016.61 1016.76 1016.86 1017.13 1017.03 1016.72 1016.48 1016.27 1015.82 1015.47 1015.14 1015.12 1015.22 1015.43 1015.66 1015.83 1016.12 1016.75 1018.68 1019.86 1020.42 1020.83 1021.29 1021.39 1021.44 1021.70 1021.61 1021.62
1015.68 1015.68 1015.68 1015.48 1015.74 1016.34 1016.89 1017.23 1017.35 1017.26 1016.91 1016.88 1016.95 1016.98 1017.01 1016.98 1017.10 1017.22 1017.44 1017.36 1017.21 1017.11 1016.93 1016.63 1016.40 1016.10 1015.79 1015.88 1016.17 1016.37 1016.82 1017.14 1017.68 1018.47 1019.75 1020.60 1021.28 1021.59 1021.87 1022.02 1022.20 1022.13 1021.96
1015.67 1015.41 1015.14 1015.36 1015.88 1016.33 1016.84 1017.10 1017.31 1017.50 1017.46 1017.28 1017.33 1017.32 1017.32 1017.37 1017.52 1017.64 1017.66 1017.52 1017.47 1017.54 1017.47 1017.37 1017.31 1017.03 1016.66 1016.57 1016.66 1016.83 1017.28 1017.73 1018.20 1018.76 1019.66 1020.58 1021.16 1021.78 1021.88 1022.11 1022.24 1022.23 1022.17
1015.21 1015.44 1015.32 1015.56 1015.97 1016.58 1016.82 1017.09 1017.43 1017.56 1017.63 1017.57 1017.50 1017.61 1017.64 1017.68 1017.82 1017.97 1017.97 1017.92 1017.85 1017.88 1017.88 1018.05 1018.34 1018.43 1018.20 1017.72 1017.09 1017.25 1017.29 1017.72 1018.64 1019.23 1019.84 1020.55 1021.15 1021.47 1021.63 1021.76 1021.64 1021.50 1021.89
1014.58 1015.16 1015.55 1015.85 1016.16 1016.58 1016.94 1017.20 1017.40 1017.62 1017.74 1017.68 1017.67 1017.66 1017.79 1018.29 1019.08 1018.92 1018.44 1018.34 1018.34 1018.30 1018.33 1018.38 1018.52 1018.74 1018.96 1018.81 1018.57 1018.47 1018.39 1018.23 1018.46 1018.84 1019.55 1020.04 1020.55 1020.90 1021.20 1021.12 1020.98 1020.81 1020.60
1014.36 1015.01 1015.52 1015.87 1015.96 1016.36 1016.77 1017.08 1017.19 1017.47 1017.74 1017.91 1017.90 1017.94 1018.17 1018.93 1019.56 1019.58 1019.22 1018.82 1018.77 1018.90 1018.88 1018.76 1018.64 1019.11 1018.90 1018.92 1019.18 1019.07 1019.12 1019.03 1018.91 1018.86 1019.22 1019.53 1019.88 1020.13 1020.51 1020.82 1020.96 1020.99 1020.75
1014.16 1015.03 1015.58 1015.90 1016.08 1016.19 1016.80 1017.24 1017.54 1017.58 1017.77 1018.00 1018.06 1018.35 1018.70 1019.56 1020.04 1020.08 1019.70 1019.38 1019.40 1019.48 1019.59 1019.72 1019.92 1020.18 1020.20 1019.57 1019.54 1019.67 1019.90 1020.10 1019.82 1019.36 1019.72 1019.98 1020.10 1020.24 1020.20 1020.42 1020.78 1020.90 1021.06
1014.02 1014.86 1015.25 1016.03 1016.43 1016.61 1016.99 1017.56 1017.78 1017.80 1018.23 1018.20 1018.17 1018.41 1018.90 1019.74 1020.18 1020.32 1019.95 1019.52 1019.76 1019.90 1020.22 1020.54 1020.60 1020.99 1021.22 1020.68 1020.27 1020.33 1020.40 1020.58 1021.26 1021.25 1021.34 1021.43 1021.44 1021.32 1020.94 1019.83 1020.06 1019.92 1020.15
1014.00 1014.80 1015.51 1015.74 1016.16 1016.57 1017.33 1017.53 1017.85 1017.76 1017.91 1017.94 1018.45 1018.86 1019.23 1019.81 1020.42 1020.55 1020.14 1019.96 1019.91 1019.98 1020.48 1021.22 1021.75 1021.80 1021.74 1021.24 1020.86 1020.71 1020.72 1020.71 1020.56 1020.69 1021.09 1021.27 1020.94 1021.39 1021.13 1020.78 1020.01 1019.32 1018.91
1014.28 1014.58 1015.10 1015.50 1015.68 1016.14 1017.12 1017.57 1017.45 1017.52 1017.65 1018.12 1018.72 1019.37 1019.90 1020.13 1020.92 1021.08 1020.83 1020.18 1020.47 1020.63 1020.68 1021.00 1021.92 1022.35 1022.29 1021.87 1021.44 1021.28 1021.49 1021.41 1021.15 1020.59 1020.31 1020.20 1020.22 1020.26 1020.36 1020.80 1021.06 1020.25 1019.88
1015.02 1015.26 1015.27 1015.54 1015.68 1015.94 1016.41 1017.05 1017.46 1017.86 1018.04 1018.46 1019.03 1019.57 1020.02 1020.49 1021.09 1021.50 1021.28 1021.21 1021.12 1020.97 1021.21 1021.80 1022.57 1022.84 1022.58 1022.26 1021.51 1022.36 1022.06 1021.77 1020.75 1020.37 1020.20 1020.28 1020.30 1020.36 1020.62 1021.03 1021.28 1021.21 1020.96
1014.92 1015.12 1015.16 1015.50 1015.87 1015.99 1016.15 1016.32 1016.98 1017.62 1017.96 1018.59 1019.16 1019.32 1020.05 1020.36 1020.94 1021.64 1021.76 1021.66 1021.62 1021.63 1022.09 1022.64 1022.91 1023.10 1022.60 1022.29 1022.57 1022.34 1022.43 1021.28 1020.74 1020.38 1020.44 1020.58 1020.82 1021.08 1021.42 1020.98 1020.98 1021.10 1021.07
1015.41 1015.66 1015.77 1015.92 1016.26 1016.64 1016.35 1016.39 1017.01 1017.58 1017.97 1018.78 1019.22 1019.42 1019.92 1020.26 1020.81 1021.49 1021.82 1022.01 1022.08 1022.05 1022.43 1022.49 1022.48 1022.42 1022.20 1022.41 1022.22 1021.82 1021.58 1021.50 1021.21 1021.01 1020.86 1020.93 1020.94 1020.82 1020.81 1020.86 1020.60 1020.38 1020.20
1015.55 1015.86 1016.20 1016.43 1016.70 1017.24 1017.56 1017.40 1017.20 1017.59 1017.90 1018.47 1019.00 1019.43 1019.74 1019.98 1020.47 1020.97 1021.42 1021.84 1021.96 1021.79 1021.99 1022.28 1021.90 1021.27 1021.01 1021.09 1021.23 1021.40 1021.43 1021.35 1021.28 1021.26 1021.12 1020.96 1020.84 1020.85 1020.78 1020.89 1020.71 1020.34 1020.02
1015.52 1015.50 1015.80 1016.51 1017.16 1017.54 1017.72 1018.01 1018.27 1018.21 1018.36 1018.88 1019.21 1019.52 1020.22 1020.48 1021.15 1021.72 1021.90 1022.06 1022.08 1022.31 1021.78 1020.94 1020.52 1020.33 1020.21 1020.33 1020.54 1020.77 1021.14 1021.44 1021.48 1021.38 1021.24 1021.12 1020.98 1020.87 1021.01 1020.67 1020.61 1020.36 1020.05
1015.46 1015.56 1016.04 1016.55 1017.05 1017.46 1017.79 1018.02 1018.48 1019.26 1019.00 1019.21 1019.62 1019.84 1020.33 1020.84 1021.51 1021.97 1022.14 1022.41 1022.58 1022.78 1021.24 1020.08 1019.97 1019.98 1020.06 1020.22 1020.36 1020.48 1020.70 1021.31 1021.82 1021.38 1021.34 1021.30 1021.15 1020.97 1020.87 1020.64 1020.41 1020.23 1019.98
1015.33 1015.62 1015.72 1016.26 1016.64 1017.16 1017.69 1017.99 1018.13 1018.41 1018.95 1019.60 1020.01 1020.29 1020.70 1021.26 1021.87 1022.06 1022.25 1022.52 1022.33 1022.04 1019.92 1019.51 1019.55 1019.79 1019.87 1020.03 1020.23 1020.47 1020.76 1021.02 1021.11 1021.21 1021.13 1021.10 1021.02 1020.98 1020.76 1020.48 1020.19 1020.12 1020.06
1015.12 1015.17 1015.38 1015.81 1016.20 1016.63 1017.02 1017.42 1017.64 1017.70 1017.78 1018.16 1019.34 1020.40 1020.96 1021.46 1022.05 1022.07 1022.12 1021.02 1019.88 1019.66 1019.27 1019.13 1019.36 1019.56 1019.77 1020.00 1020.31 1020.65 1020.95 1020.84 1021.03 1021.05 1020.93 1020.95 1020.85 1020.66 1020.52 1020.34 1020.04 1020.28 1020.33
1015.05 1015.08 1015.25 1015.23 1015.92 1016.21 1016.16 1016.09 1016.16 1016.33 1016.65 1017.19 1017.70 1018.22 1019.70 1020.79 1020.66 1020.54 1020.63 1019.91 1019.04 1018.62 1018.72 1018.78 1019.11 1019.40 1019.50 1019.91 1020.24 1020.52 1020.65 1020.74 1020.69 1020.60 1020.50 1020.71 1020.69 1020.55 1020.21 1020.03 1019.83 1019.64 1019.46
1014.70 1014.76 1015.01 1014.69 1014.71 1014.80 1014.85 1014.98 1015.33 1015.72 1015.96 1016.27 1016.60 1017.37 1018.38 1018.17 1018.09 1018.40 1018.72 1018.84 1018.58 1018.45 1018.54 1018.62 1018.65 1018.87 1019.20 1019.62 1019.79 1019.99 1020.00 1020.13 1020.04 1020.22 1020.33 1020.44 1020.40 1020.28 1020.08 1019.78 1019.53 1019.22 1018.92
1013.72 1014.04 1014.28 1013.98 1014.24 1014.42 1014.50 1014.78 1015.02 1015.18 1015.39 1015.74 1016.32 1017.83 1018.40 1018.05 1017.31 1017.60 1017.92 1018.12 1018.22 1018.29 1018.31 1018.61 1018.50 1018.40 1018.44 1018.77 1019.36 1019.74 1019.61 1019.59 1019.75 1020.08 1020.29 1020.35 1020.26 1019.99 1019.76 1019.46 1019.18 1018.86 1018.65
1013.26 1013.48 1013.55 1013.73 1014.10 1014.36 1014.58 1014.55 1014.67 1014.88 1015.05 1015.38 1015.74 1016.57 1017.59 1017.33 1017.01 1017.16 1017.41 1017.60 1017.78 1018.04 1018.38 1018.77 1018.70 1018.32 1018.71 1019.58 1020.01 1020.06 1019.85 1019.79 1020.30 1020.66 1020.70 1020.49 1020.30 1020.02 1019.84 1019.72 1019.44 1019.04 1018.81
1013.05 1013.14 1013.30 1013.54 1013.82 1014.12 1014.09 1014.27 1014.46 1014.77 1014.69 1014.97 1015.23 1015.52 1015.95 1016.52 1016.58 1016.64 1016.82 1017.08 1018.00 1018.62 1018.84 1018.80 1018.75 1018.77 1019.58 1019.82 1020.19 1020.36 1020.62 1021.22 1021.20 1020.89 1021.20 1020.83 1020.52 1020.26 1020.06 1019.88 1019.60 1019.24 1019.07
1012.62 1012.79 1012.88 1013.02 1013.30 1013.64 1013.67 1013.84 1013.92 1013.96 1014.37 1014.78 1014.91 1015.90 1016.00 1015.47 1015.76 1015.92 1016.50 1017.82 1018.09 1018.37 1018.66 1018.90 1019.13 1019.52 1019.99 1020.20 1020.35 1020.99 1022.51 1022.71 1022.18 1022.47 1021.40 1020.86 1020.70 1020.73 1020.37 1020.06 1019.75 1019.60 1019.37
1012.74 1012.49 1012.55 1012.66 1012.75 1012.97 1013.26 1013.39 1013.59 1013.76 1013.97 1014.46 1015.42 1015.35 1015.56 1015.70 1015.60 1016.05 1017.17 1017.82 1018.45 1018.83 1019.11 1019.39 1019.42 1019.62 1020.31 1020.57 1020.88 1022.26 1022.72 1022.74 1022.38 1022.64 1021.96 1020.82 1020.68 1020.44 1020.38 1020.32 1019.96 1019.83 1019.29
Thickness
5730 5710 5708 5709 5715 5716 5717 5718 5718 5720 5722 5726 5727 5729 5730 5731 5728 5725 5724 5724 5723 5725 5728 5729 5733 5732 5730 5728 5726 5722 5720 5714 5701 5688 5684 5678 5677 5677 5675 5675 5673 5671 5668
5723 5706 5709 5714 5716 5714 5712 5712 5713 5714 5719 5724 5724 5724 5725 5725 5723 5721 5717 5717 5718 5719 5720 5724 5726 5729 5727 5726 5723 5718 5716 5714 5708 5689 5681 5676 5673 5670 5668 5667 5665 5664 5662
5726 5722 5721 5724 5724 5717 5713 5711 5711 5713 5717 5718 5718 5718 5719 5719 5718 5718 5715 5713 5714 5714 5714 5716 5717 5720 5721 5719 5715 5712 5707 5705 5700 5692 5681 5674 5668 5664 5662 5659 5656 5655 5654
5725 5726 5726 5724 5720 5716 5711 5711 5710 5708 5708 5711 5713 5714 5715 5715 5713 5712 5711 5711 5710 5709 5709 5708 5708 5710 5712 5712 5710 5707 5703 5697 5692 5688 5679 5671 5666 5659 5657 5654 5651 5649 5648
5727 5723 5723 5721 5718 5712 5709 5707 5705 5705 5705 5706 5707 5708 5709 5710 5708 5707 5706 5705 5704 5703 5703 5700 5696 5694 5695 5699 5705 5702 5701 5696 5685 5679 5673 5666 5660 5657 5655 5652 5650 5649 5643
5725 5721 5719 5716 5713 5708 5704 5702 5701 5701 5701 5702 5702 5703 5704 5701 5692 5694 5699 5699 5698 5696 5695 5694 5693 5690 5686 5686 5688 5687 5688 5688 5684 5680 5672 5666 5660 5656 5652 5650 5649 5647 5645
5728 5722 5716 5711 5709 5705 5701 5698 5698 5697 5697 5696 5697 5698 5697 5692 5685 5685 5689 5693 5691 5688 5687 5688 5688 5684 5687 5686 5680 5680 5678 5678 5678 5676 5669 5665 5660 5655 5650 5644 5640 5637 5636
5728 5718 5711 5705 5701 5701 5695 5694 5692 5692 5691 5690 5691 5690 5689 5683 5678 5678 5682 5685 5682 5680 5678 5677 5674 5671 5670 5676 5675 5671 5668 5665 5666 5666 5660 5655 5650 5645 5642 5639 5632 5627 5622
5727 5717 5709 5701 5696 5694 5690 5688 5687 5683 5682 5685 5688 5687 5684 5678 5673 5672 5675 5679 5674 5672 5669 5667 5666 5662 5657 5661 5664 5660 5658 5654 5647 5645 5642 5638 5634 5631 5630 5634 5626 5623 5616
5726 5717 5708 5705 5700 5697 5690 5688 5684 5685 5684 5685 5681 5679 5676 5674 5667 5667 5671 5672 5669 5668 5663 5657 5651 5651 5649 5651 5655 5652 5648 5645 5643 5638 5632 5627 5625 5619 5616 5614 5616 5616 5616
5723 5720 5714 5708 5705 5702 5693 5688 5687 5687 5685 5680 5676 5672 5668 5669 5663 5659 5661 5667 5661 5658 5657 5654 5646 5639 5639 5640 5640 5642 5636 5634 5629 5629 5627 5624 5619 5614 5609 5602 5596 5598 5596
5714 5711 5710 5707 5706 5703 5697 5691 5686 5682 5679 5675 5671 5669 5665 5662 5657 5652 5651 5651 5650 5650 5648 5643 5635 5630 5630 5630 5629 5622 5620 5619 5623 5620 5616 5610 5605 5601 5596 5589 5583 5580 5577
5709 5709 5708 5705 5701 5700 5696 5694 5688 5683 5680 5674 5668 5667 5659 5658 5655 5646 5644 5643 5641 5639 5635 5629 5624 5621 5621 5619 5614 5612 5609 5614 5611 5607 5601 5596 5591 5586 5579 5578 5574 5569 5567
5698 5696 5696 5695 5692 5689 5692 5690 5684 5679 5677 5669 5664 5661 5654 5653 5648 5643 5639 5635 5630 5628 5623 5620 5618 5617 5614 5612 5607 5606 5604 5598 5595 5591 5588 5584 5580 5578 5574 5569 5567 5566 5563
5691 5689 5686 5683 5680 5675 5672 5675 5678 5675 5671 5666 5660 5655 5652 5650 5646 5641 5636 5628 5624 5623 5619 5613 5614 5615 5613 5609 5603 5597 5591 5588 5583 5579 5576 5574 5571 5567 5564 5560 5557 5556 5553
5683 5685 5684 5677 5670 5667 5667 5664 5660 5660 5659 5654 5652 5649 5641 5637 5631 5626 5622 5616 5614 5610 5611 5612 5611 5608 5605 5600 5594 5588 5582 5575 5572 5569 5566 5564 5561 5558 5552 5552 5548 5544 5542
5675 5675 5671 5667 5663 5659 5658 5656 5652 5643 5644 5642 5638 5638 5633 5627 5619 5616 5611 5606 5601 5596 5604 5607 5602 5598 5593 5588 5583 5580 5575 5567 5559 5559 5556 5553 5550 5547 5543 5540 5537 5535 5532
5668 5663 5667 5662 5659 5654 5648 5645 5646 5645 5639 5632 5625 5623 5617 5613 5608 5605 5600 5595 5595 5591 5602 5599 5593 5587 5584 5580 5576 5570 5565 5560 5556 5551 5548 5544 5541 5536 5533 5531 5530 5525 5521
5663 5662 5660 5655 5651 5648 5644 5641 5639 5639 5638 5635 5622 5611 5604 5600 5596 5593 5590 5596 5600 5597 5594 5591 5585 5580 5577 5572 5566 5560 5554 5551 5546 5542 5540 5536 5532 5530 5526 5523 5521 5509 5504
5655 5653 5651 5651 5645 5642 5642 5643 5642 5640 5636 5631 5625 5620 5606 5596 5597 5595 5591 5591 5593 5592 5587 5583 5578 5573 5570 5564 5558 5552 5547 5542 5539 5537 5534 5528 5525 5521 5518 5515 5512 5508 5505
5649 5648 5645 5649 5648 5646 5645 5643 5639 5634 5630 5627 5623 5615 5604 5605 5605 5598 5591 5586 5585 5583 5579 5575 5573 5570 5564 5557 5552 5547 5544 5539 5537 5532 5526 5521 5517 5512 5510 5508 5505 5504 5502
5648 5644 5642 5644 5641 5638 5636 5633 5630 5627 5624 5619 5613 5598 5590 5594 5597 5591 5586 5581 5578 5574 5572 5567 5565 5563 5559 5554 5546 5540 5537 5534 5530 5522 5516 5511 5507 5505 5503 5501 5499 5498 5496
5641 5637 5636 5634 5630 5625 5623 5624 5622 5619 5616 5612 5608 5599 5588 5588 5588 5584 5580 5576 5572 5567 5561 5555 5554 5554 5548 5538 5531 5527 5526 5522 5513 5506 5503 5500 5498 5496 5493 5490 5488 5488 5486
5630 5627 5625 5622 5619 5616 5617 5615 5612 5607 5609 5605 5602 5597 5591 5585 5581 5579 5576 5572 5561 5553 5548 5545 5542 5540 5531 5526 5520 5516 5510 5501 5497 5495 5489 5488 5487 5485 5483 5480 5478 5477 5475
5620 5618 5617 5615 5612 5609 5610 5608 5607 5606 5602 5597 5594 5584 5581 5584 5579 5575 5568 5554 5550 5544 5539 5534 5530 5526 5519 5514 5509 5502 5491 5485 5482 5479 5478 5478 5476 5472 5471 5470 5469 5466 5464
5605 5608 5608 5607 5607 5605 5603 5602 5601 5598 5594 5589 5580 5579 5575 5571 5570 5564 5551 5543 5534 5532 5526 5522 5518 5514 5506 5501 5495 5486 5479 5475 5471 5467 5466 5469 5467 5465 5462 5458 5457 5454 5454